User: anonymous   Login
Location: Newark
(49.1000°N, 0.4667°W)
Time: 04:25:23
(UTC+00:00)
Language:

FO-29 - Orbit

View from above orbital plane
View from above orbital plane
View from above satellite
View from above satellite

Ground track
Ground track

The orbit data is extracted from the following two-line orbital elements,

1 24278U 96046B   21290.60376322 -.00000045  00000-0 -10130-4 0  9991
2 24278  98.5532 342.3230 0350157 192.9775 166.2175 13.53106698243015
Epoch (UTC): 17 October 2021 14:29:25
Eccentricity: 0.0350157
inclination: 98.5532°
perigee height: 800 km
apogee height: 1321 km
right ascension of ascending node: 342.3230°
argument of perigee: 192.9775°
revolutions per day: 13.53106698
mean anomaly at epoch: 166.2175°
orbit number at epoch: 24301

The dashed part of the orbit path shows where the satellite is in the earth's shadow,  

DLR